• In Uzbekistan
  • List of Countries
  • For 7 days
  • Water Temperature
  • Satellite Maps
  • Weather Map
  • Weather Widgets
  • user-avatar
    Login

    Hourly Weather Holhol

    Today, 20 July, Friday

    Time Temperature Precipitation Wind Pressure Humidity
    00:00 +36°C° 0 mm 2 mps 711 mmHg 33%
    01:00 +36°C° 0.2 mm 2 mps 711 mmHg 34%
    02:00 +35°C° 0.2 mm 3 mps 710 mmHg 35%
    03:00 +35°C° 0.2 mm 3 mps 710 mmHg 36%
    04:00 +34°C° 0.1 mm 4 mps 711 mmHg 36%
    05:00 +34°C° 0.1 mm 4 mps 711 mmHg 37%
    06:00 +33°C° 0.1 mm 5 mps 711 mmHg 37%
    07:00 +34°C° 0 mm 6 mps 711 mmHg 35%
    08:00 +35°C° 0 mm 6 mps 712 mmHg 33%
    09:00 +36°C° 0 mm 7 mps 712 mmHg 32%
    10:00 +38°C° 0 mm 7 mps 712 mmHg 30%
    11:00 +39°C° 0 mm 7 mps 712 mmHg 28%
    12:00 +40°C° 0 mm 7 mps 712 mmHg 26%
    13:00 +41°C° 0 mm 6 mps 711 mmHg 25%
    14:00 +41°C° 0 mm 6 mps 710 mmHg 24%
    15:00 +42°C° 0 mm 5 mps 710 mmHg 23%
    16:00 +41°C° 0 mm 4 mps 709 mmHg 24%
    17:00 +41°C° 0 mm 4 mps 709 mmHg 24%
    18:00 +40°C° 0 mm 3 mps 709 mmHg 25%
    19:00 +39°C° 0 mm 3 mps 709 mmHg 27%
    20:00 +38°C° 0 mm 3 mps 710 mmHg 29%
    21:00 +38°C° 0 mm 4 mps 710 mmHg 31%
    22:00 +37°C° 0.1 mm 3 mps 710 mmHg 33%
    23:00 +36°C° 0.1 mm 3 mps 710 mmHg 34%

    Tomorrow, 21 July, Saturday

    Time Temperature Precipitation Wind Pressure Humidity
    00:00 +36°C° 0.1 mm 3 mps 711 mmHg 36%
    01:00 +35°C° 0.3 mm 3 mps 710 mmHg 37%
    02:00 +35°C° 0.3 mm 3 mps 710 mmHg 38%
    03:00 +34°C° 0.3 mm 3 mps 710 mmHg 39%
    04:00 +34°C° 0.5 mm 4 mps 710 mmHg 40%
    05:00 +33°C° 0.5 mm 4 mps 710 mmHg 42%
    06:00 +33°C° 0.5 mm 5 mps 711 mmHg 43%
    07:00 +33°C° 0.2 mm 6 mps 711 mmHg 41%
    08:00 +34°C° 0.2 mm 6 mps 712 mmHg 39%
    09:00 +34°C° 0.2 mm 7 mps 712 mmHg 37%
    10:00 +35°C° 0 mm 7 mps 712 mmHg 35%
    11:00 +36°C° 0 mm 7 mps 712 mmHg 33%
    12:00 +38°C° 0 mm 8 mps 712 mmHg 31%
    13:00 +39°C° 0 mm 7 mps 711 mmHg 30%
    14:00 +39°C° 0 mm 6 mps 711 mmHg 28%
    15:00 +40°C° 0 mm 6 mps 710 mmHg 26%
    16:00 +39°C° 0.1 mm 5 mps 710 mmHg 27%
    17:00 +38°C° 0.1 mm 4 mps 710 mmHg 27%
    18:00 +38°C° 0.1 mm 3 mps 710 mmHg 27%
    19:00 +37°C° 0 mm 2 mps 710 mmHg 29%
    20:00 +37°C° 0 mm 2 mps 711 mmHg 31%
    21:00 +35°C° 0 mm 1 mps 711 mmHg 34%
    22:00 +36°C° 0 mm 2 mps 711 mmHg 34%
    23:00 +35°C° 0 mm 3 mps 711 mmHg 35%

    Day after tomorrow, 22 July, Sunday

    Time Temperature Precipitation Wind Pressure Humidity
    00:00 +35°C° 0 mm 3 mps 711 mmHg 36%
    01:00 +35°C° 0 mm 3 mps 711 mmHg 36%
    02:00 +34°C° 0 mm 4 mps 711 mmHg 36%
    03:00 +34°C° 0 mm 4 mps 710 mmHg 36%
    04:00 +33°C° 0 mm 4 mps 710 mmHg 37%
    05:00 +33°C° 0 mm 5 mps 711 mmHg 37%
    06:00 +33°C° 0 mm 5 mps 711 mmHg 37%
    07:00 +33°C° 0 mm 6 mps 711 mmHg 36%
    08:00 +34°C° 0 mm 7 mps 712 mmHg 34%
    09:00 +34°C° 0 mm 7 mps 712 mmHg 33%
    10:00 +36°C° 0 mm 7 mps 712 mmHg 31%
    11:00 +38°C° 0 mm 7 mps 712 mmHg 28%
    12:00 +39°C° 0 mm 7 mps 712 mmHg 26%
    13:00 +40°C° 0 mm 6 mps 711 mmHg 25%
    14:00 +41°C° 0 mm 6 mps 710 mmHg 23%
    15:00 +41°C° 0 mm 5 mps 710 mmHg 22%
    16:00 +41°C° 0.1 mm 4 mps 710 mmHg 23%
    17:00 +40°C° 0.1 mm 4 mps 709 mmHg 23%
    18:00 +39°C° 0.1 mm 3 mps 709 mmHg 24%
    19:00 +38°C° 0.1 mm 3 mps 710 mmHg 26%
    20:00 +38°C° 0.1 mm 3 mps 710 mmHg 28%
    21:00 +37°C° 0.1 mm 3 mps 711 mmHg 29%
    22:00 +37°C° 0 mm 3 mps 711 mmHg 30%
    23:00 +36°C° 0 mm 3 mps 711 mmHg 31%

    23 July, Monday

    Time Temperature Precipitation Wind Pressure Humidity
    00:00 +36°C° 0 mm 4 mps 711 mmHg 32%
    01:00 +35°C° 0 mm 4 mps 711 mmHg 33%
    02:00 +35°C° 0 mm 4 mps 710 mmHg 34%
    03:00 +34°C° 0 mm 5 mps 710 mmHg 35%
    04:00 +34°C° 0 mm 5 mps 710 mmHg 35%
    05:00 +33°C° 0 mm 5 mps 711 mmHg 36%
    06:00 +33°C° 0 mm 5 mps 711 mmHg 36%
    07:00 +34°C° 0 mm 6 mps 711 mmHg 34%
    08:00 +35°C° 0 mm 6 mps 712 mmHg 31%
    09:00 +36°C° 0 mm 7 mps 712 mmHg 28%
    10:00 +38°C° 0 mm 7 mps 712 mmHg 27%
    11:00 +39°C° 0 mm 7 mps 712 mmHg 25%
    12:00 +41°C° 0 mm 7 mps 711 mmHg 23%
    13:00 +41°C° 0 mm 7 mps 711 mmHg 22%
    14:00 +41°C° 0 mm 6 mps 710 mmHg 22%
    15:00 +42°C° 0 mm 5 mps 709 mmHg 21%
    16:00 +41°C° 0 mm 4 mps 709 mmHg 21%
    17:00 +41°C° 0 mm 4 mps 709 mmHg 22%
    18:00 +40°C° 0 mm 3 mps 709 mmHg 22%
    19:00 +39°C° 0 mm 3 mps 710 mmHg 24%
    20:00 +40°C° 0 mm 4 mps 710 mmHg 25%
    21:00 +38°C° 0 mm 4 mps 711 mmHg 27%
    22:00 +37°C° 0 mm 3 mps 710 mmHg 28%
    23:00 +37°C° 0 mm 3 mps 710 mmHg 29%

    24 July, Tuesday

    Time Temperature Precipitation Wind Pressure Humidity
    00:00 +36°C° 0 mm 3 mps 710 mmHg 30%
    01:00 +36°C° 0 mm 3 mps 710 mmHg 31%
    02:00 +35°C° 0 mm 3 mps 710 mmHg 33%
    03:00 +35°C° 0 mm 3 mps 710 mmHg 34%
    04:00 +34°C° 0 mm 4 mps 710 mmHg 35%
    05:00 +34°C° 0 mm 4 mps 710 mmHg 36%
    06:00 +33°C° 0 mm 5 mps 711 mmHg 37%
    07:00 +34°C° 0.1 mm 5 mps 711 mmHg 35%
    08:00 +35°C° 0.1 mm 6 mps 712 mmHg 33%
    09:00 +36°C° 0.1 mm 6 mps 712 mmHg 32%
    10:00 +38°C° 0 mm 7 mps 712 mmHg 30%
    11:00 +39°C° 0 mm 7 mps 712 mmHg 28%
    12:00 +40°C° 0 mm 7 mps 711 mmHg 26%
    13:00 +40°C° 0 mm 7 mps 711 mmHg 25%
    14:00 +41°C° 0 mm 7 mps 710 mmHg 25%
    15:00 +41°C° 0 mm 6 mps 709 mmHg 25%
    16:00 +40°C° 0 mm 6 mps 709 mmHg 26%
    17:00 +40°C° 0 mm 5 mps 709 mmHg 27%
    18:00 +40°C° 0 mm 4 mps 709 mmHg 28%
    19:00 +38°C° 0.1 mm 4 mps 710 mmHg 29%
    20:00 +38°C° 0.1 mm 4 mps 710 mmHg 30%
    21:00 +37°C° 0.1 mm 3 mps 711 mmHg 31%
    22:00 +37°C° 0 mm 3 mps 711 mmHg 32%
    23:00 +36°C° 0 mm 3 mps 711 mmHg 34%

    25 July, Wednesday

    Time Temperature Precipitation Wind Pressure Humidity
    00:00 +36°C° 0 mm 4 mps 710 mmHg 35%
    01:00 +35°C° 0 mm 4 mps 710 mmHg 36%
    02:00 +35°C° 0 mm 4 mps 710 mmHg 37%
    03:00 +34°C° 0 mm 4 mps 710 mmHg 38%
    04:00 +34°C° 0 mm 4 mps 710 mmHg 39%
    05:00 +33°C° 0 mm 5 mps 711 mmHg 40%
    06:00 +33°C° 0 mm 6 mps 711 mmHg 42%
    07:00 +33°C° 0 mm 7 mps 711 mmHg 41%
    08:00 +34°C° 0 mm 8 mps 712 mmHg 40%
    09:00 +35°C° 0 mm 9 mps 712 mmHg 39%
    10:00 +37°C° 0 mm 8 mps 712 mmHg 36%
    11:00 +38°C° 0 mm 8 mps 711 mmHg 33%
    12:00 +39°C° 0 mm 7 mps 711 mmHg 31%
    13:00 +40°C° 0 mm 7 mps 710 mmHg 30%
    14:00 +40°C° 0 mm 6 mps 710 mmHg 29%
    15:00 +41°C° 0 mm 5 mps 709 mmHg 28%
    16:00 +41°C° 0 mm 4 mps 709 mmHg 27%
    17:00 +41°C° 0 mm 4 mps 709 mmHg 27%
    18:00 +40°C° 0 mm 3 mps 709 mmHg 27%
    19:00 +39°C° 0 mm 3 mps 709 mmHg 28%
    20:00 +40°C° 0 mm 4 mps 710 mmHg 30%
    21:00 +38°C° 0 mm 4 mps 710 mmHg 31%
    22:00 +37°C° 0.4 mm 4 mps 710 mmHg 33%
    23:00 +37°C° 0.4 mm 4 mps 710 mmHg 35%
    Show more